| time (UTC) | temp F | wind direction | speed knots | gust knots | rain 1hr in | rain 24hr in | rain mn in | humidity % | barometer mb |
| 20260505113017 | 61 | 68 | 1.7 | 5.2 | 0.00 | 0.00 | 0.00 | 73 | 996.4 |
| 20260505111517 | 59 | 82 | 1.7 | 5.2 | 0.00 | 0.00 | 0.00 | 79 | 996.3 |
| 20260505101517 | 58 | 52 | 1.7 | 5.2 | 0.00 | 0.00 | 0.00 | 85 | 995.7 |
| 20260505100016 | 59 | 51 | 1.7 | 5.2 | 0.00 | 0.00 | 0.00 | 83 | 995.6 |
| 20260505094516 | 59 | 48 | 1.7 | 6.1 | 0.00 | 0.00 | 0.00 | 81 | 995.5 |
| 20260505093016 | 59 | 62 | 1.7 | 5.2 | 0.00 | 0.00 | 0.00 | 80 | 995.5 |
| 20260505091517 | 60 | 61 | 1.7 | 7.0 | 0.00 | 0.00 | 0.00 | 80 | 995.4 |
| 20260505090036 | 60 | 69 | 1.7 | 5.2 | 0.00 | 0.00 | 0.00 | 80 | 995.3 |
| 20260505084517 | 60 | 70 | 2.6 | 7.0 | 0.00 | 0.00 | 0.00 | 80 | 995.3 |
| 20260505083023 | 60 | 53 | 1.7 | 5.2 | 0.00 | 0.00 | 0.00 | 78 | 995.3 |
| 20260505081517 | 61 | 75 | 1.7 | 4.3 | 0.00 | 0.00 | 0.00 | 75 | 995.3 |
| 20260505080017 | 62 | 62 | 1.7 | 6.1 | 0.00 | 0.00 | 0.00 | 72 | 995.2 |
| 20260505074518 | 62 | 77 | 1.7 | 4.3 | 0.00 | 0.00 | 0.00 | 69 | 995.0 |
| 20260505073018 | 63 | 75 | 1.7 | 4.3 | 0.00 | 0.00 | 0.00 | 67 | 994.9 |
| 20260505071518 | 63 | 64 | 1.7 | 7.0 | 0.00 | 0.00 | 0.00 | 66 | 995.0 |
| 20260505070018 | 63 | 84 | 1.7 | 4.3 | 0.00 | 0.00 | 0.00 | 64 | 995.0 |
| 20260505064518 | 63 | 73 | 1.7 | 6.1 | 0.00 | 0.00 | 0.00 | 63 | 995.1 |
| 20260505063038 | 63 | 75 | 1.7 | 5.2 | 0.00 | 0.00 | 0.00 | 65 | 995.1 |
| 20260505061538 | 62 | 71 | 1.7 | 5.2 | 0.00 | 0.00 | 0.00 | 68 | 995.1 |
| 20260505060018 | 62 | 59 | 0.9 | 1.7 | 0.00 | 0.00 | 0.00 | 67 | 995.1 |
| 20260505054518 | 62 | 85 | 0.9 | 2.6 | 0.00 | 0.00 | 0.00 | 66 | 995.1 |
| 20260505053018 | 63 | 86 | 0.9 | 3.5 | 0.00 | 0.00 | 0.00 | 66 | 995.2 |
| 20260505051518 | 63 | 78 | 1.7 | 4.3 | 0.00 | 0.00 | 0.00 | 65 | 995.3 |
| 20260505041516 | 64 | 57 | 1.7 | 5.2 | 0.00 | 0.00 | 0.00 | 55 | 995.0 |
| 20260505040017 | 64 | 59 | 1.7 | 4.3 | 0.00 | 0.00 | 0.00 | 54 | 994.8 |
| 20260505034517 | 64 | 59 | 1.7 | 5.2 | 0.00 | 0.00 | 0.00 | 52 | 994.9 |
| 20260505033017 | 64 | 45 | 1.7 | 4.3 | 0.00 | 0.00 | 0.00 | 51 | 994.9 |
| 20260505031517 | 64 | 53 | 0.9 | 2.6 | 0.00 | 0.00 | 0.00 | 50 | 995.0 |
| 20260505030017 | 65 | 54 | 0.9 | 2.6 | 0.00 | 0.00 | 0.00 | 49 | 995.0 |
| 20260505024517 | 65 | 74 | 1.7 | 5.2 | 0.00 | 0.00 | 0.00 | 48 | 995.0 |
| 20260505023018 | 66 | 44 | 1.7 | 4.3 | 0.00 | 0.00 | 0.00 | 47 | 994.9 |
| 20260505021517 | 66 | 54 | 0.9 | 4.3 | 0.00 | 0.00 | 0.00 | 46 | 994.7 |
| 20260505020017 | 67 | 74 | 0.9 | 4.3 | 0.00 | 0.00 | 0.00 | 44 | 994.6 |
| 20260505014517 | 67 | 57 | 1.7 | 4.3 | 0.00 | 0.00 | 0.00 | 43 | 994.5 |
| 20260505013017 | 68 | 49 | 1.7 | 3.5 | 0.00 | 0.00 | 0.00 | 41 | 994.3 |
| 20260505011517 | 68 | 72 | 1.7 | 5.2 | 0.00 | 0.00 | 0.00 | 40 | 994.1 |
| 20260505010018 | 68 | 65 | 1.7 | 7.0 | 0.00 | 0.00 | 0.00 | 39 | 993.9 |
| 20260505004517 | 69 | 61 | 2.6 | 6.1 | 0.00 | 0.00 | 0.00 | 37 | 993.8 |
| 20260505003017 | 69 | 74 | 1.7 | 6.1 | 0.00 | 0.00 | 0.00 | 36 | 993.7 |
| 20260505001519 | 70 | 67 | 1.7 | 5.2 | 0.00 | 0.00 | 0.00 | 35 | 993.6 |
| 20260505000017 | 70 | 55 | 2.6 | 6.1 | 0.00 | 0.00 | 0.00 | 34 | 993.5 |
| 20260504234536 | 71 | 62 | 1.7 | 5.2 | 0.00 | 0.00 | 0.00 | 33 | 993.4 |
| 20260504233016 | 71 | 46 | 1.7 | 5.2 | 0.00 | 0.00 | 0.00 | 32 | 993.3 |
| 20260504231557 | 72 | 77 | 1.7 | 5.2 | 0.00 | 0.00 | 0.00 | 31 | 993.4 |
| 20260504230017 | 73 | 64 | 2.6 | 7.0 | 0.00 | 0.00 | 0.00 | 29 | 993.3 |
| 20260504224516 | 73 | 66 | 2.6 | 7.0 | 0.00 | 0.00 | 0.00 | 28 | 993.3 |
| 20260504223037 | 74 | 58 | 1.7 | 7.8 | 0.00 | 0.00 | 0.00 | 27 | 993.2 |
| 20260504221517 | 74 | 62 | 1.7 | 6.1 | 0.00 | 0.00 | 0.00 | 27 | 993.2 |
| 20260504220017 | 74 | 62 | 2.6 | 7.8 | 0.00 | 0.00 | 0.00 | 27 | 993.3 |
| 20260504214517 | 74 | 71 | 2.6 | 8.7 | 0.00 | 0.00 | 0.00 | 27 | 993.3 |
| 20260504213017 | 74 | 63 | 2.6 | 7.0 | 0.00 | 0.00 | 0.00 | 26 | 993.4 |
| 20260504211517 | 74 | 50 | 1.7 | 6.1 | 0.00 | 0.00 | 0.00 | 27 | 993.4 |
| 20260504210017 | 75 | 61 | 2.6 | 10.4 | 0.00 | 0.00 | 0.00 | 26 | 993.5 |
| 20260504204517 | 75 | 38 | 1.7 | 6.1 | 0.00 | 0.00 | 0.00 | 27 | 993.5 |
| 20260504203017 | 75 | 55 | 2.6 | 8.7 | 0.00 | 0.00 | 0.00 | 27 | 993.6 |
| 20260504201517 | 75 | 53 | 2.6 | 7.0 | 0.00 | 0.00 | 0.00 | 26 | 993.9 |
| 20260504200037 | 75 | 70 | 1.7 | 6.1 | 0.00 | 0.00 | 0.00 | 28 | 994.1 |
| 20260504194517 | 75 | 61 | 1.7 | 6.1 | 0.00 | 0.00 | 0.00 | 28 | 994.3 |
| 20260504193018 | 74 | 47 | 1.7 | 6.1 | 0.00 | 0.00 | 0.00 | 29 | 994.6 |
| 20260504191517 | 74 | 63 | 1.7 | 7.0 | 0.00 | 0.00 | 0.00 | 29 | 994.9 |
| 20260504190017 | 74 | 42 | 1.7 | 7.0 | 0.00 | 0.00 | 0.00 | 29 | 995.1 |
| 20260504184517 | 74 | 48 | 2.6 | 6.1 | 0.00 | 0.00 | 0.00 | 29 | 995.3 |
| 20260504183016 | 73 | 65 | 1.7 | 6.1 | 0.00 | 0.00 | 0.00 | 30 | 995.5 |
| 20260504181537 | 73 | 73 | 2.6 | 7.0 | 0.00 | 0.00 | 0.00 | 30 | 995.7 |
| 20260504180016 | 73 | 46 | 2.6 | 7.0 | 0.00 | 0.00 | 0.00 | 29 | 995.9 |
| 20260504174517 | 73 | 47 | 1.7 | 7.0 | 0.00 | 0.00 | 0.00 | 30 | 995.9 |
| 20260504173017 | 72 | 41 | 1.7 | 7.8 | 0.00 | 0.00 | 0.00 | 31 | 996.1 |
| 20260504171516 | 71 | 61 | 1.7 | 4.3 | 0.00 | 0.00 | 0.00 | 31 | 996.2 |